Location: Arlington
(40.6323°N, 74.1651°W)
Time: 22:46:07
(UTC+00:00)

Cosmos 2322 Rocket - Pass Details

Date: 22 November 2019
Orbit: 833 x 851 km, 71.0° (Epoch: 05 December)

Event Time Altitude Azimuth Distance (km) Brightness Sun altitude
Rises 21:58:25 0° 153° (SSE) 3,363 5.3 -5.0°
Reaches altitude 10° 22:01:54 10° 131° (SE) 2,436 4.3 -5.7°
Maximum altitude 22:04:55 15° 98° (E) 2,112 3.8 -6.2°
Drops below altitude 10° 22:07:56 10° 65° (ENE) 2,448 3.9 -6.7°
Enters shadow 22:08:51 - 57° (ENE) 2,657 4.1 -6.9°
